Voltar ao catálogo

BADR B

AtivoComunicaçõesSSO
NORAD 27003·PAYLOAD·🇵🇰 Pakistan

Lançado Dec 10, 2001 de Baikonur Cosmodrome

Loading…

Próximas Passagens (próximas 24 horas)

TLE

AtualizadoSource: Space-Track

Época: Sep 14, 2026, 08:14 UTC

1 27003U 01056C   26257.34345723 -.00000038  00000-0  98556-5 0  9997
2 27003  99.8097  74.6835 0019459 268.4998  91.3919 13.70412459238150

Acompanhe BADR B em tempo real com AllMySat

Download on the App Store